Flag for India Weather past 2 weeks in Ahmedabad, Gujarat, India

Now
86 °F

Passing clouds.


Feels Like: 95 °F
Forecast: 80 / 98 °F
Wind: 8 mph from West

Location: Ahmadabad Airport

Current Time: Jul 4, 2015 at 1:55:14 AM

Latest Report: Jul 4, 2015 at 1:10 AM


Visibility: 2 mi

Pressure: 29.71 "Hg

Humidity: 70%

Dew point: 75 °F

Location of AhmedabadLocation

Historic Weather in Ahmedabad — Graph

°F

Ahmedabad temperature yesterday

Maximum temperature yesterday: 100 °F (at 4:40 PM)
Minimum temperature yesterday: 82 °F (at 4:40 AM)
Average temperature yesterday: 89 °F

Past Weeks' High & Low Weather Summary

 TemperatureHumidityPressure
High102 °F (Jun 20, 2:40 PM)94% (Jun 24, 6:40 PM)29.77 "Hg (Jun 24, 6:40 PM)
Low79 °F (Jun 24, 6:40 PM)42% (Jul 1, 5:10 PM)29.33 "Hg (Jun 20, 4:40 PM)
Average89 °F67%29.56 "Hg
* Reported Jun 19 12:40 AM — Jul 4 12:40 AM, Ahmedabad, Weather by CustomWeather, © 2015

Note: Actual official high and low records may vary slightly from our data, if they occured in-between our weather recording intervals... More about our weather records

Advertising

Ahmedabad weather history for previous 24 hours

 ConditionsComfort  
Time TempWeatherWind HumidityBarometerVisibility
12:40 AM
Sat, Jul 4
88 °FHaze.9 mph66%29.71 "Hg2 mi
12:10 AM88 °FHaze.9 mph66%29.71 "Hg2 mi
11:40 PM
Fri, Jul 3
90 °FPassing clouds.8 mph63%29.71 "Hg2 mi
11:10 PM90 °FHaze.10 mph63%29.71 "Hg2 mi
10:40 PM90 °FHaze.8 mph63%29.71 "Hg2 mi
10:10 PM90 °FHaze.5 mph71%29.71 "Hg2 mi
9:40 PM90 °FHaze.6 mph67%29.71 "Hg2 mi
9:10 PM90 °FHaze.7 mph71%29.71 "Hg2 mi
8:40 PM91 °FHaze.9 mph63%29.71 "Hg2 mi
8:10 PM91 °FPassing clouds.8 mph63%29.68 "Hg2 mi
6:40 PM97 °FPassing clouds.9 mph53%29.65 "Hg4 mi
6:10 PM97 °FScattered clouds.16 mph53%29.65 "Hg4 mi
5:40 PM100 °FScattered clouds.12 mph42%29.65 "Hg4 mi
5:10 PM100 °FScattered clouds.12 mph45%29.65 "Hg4 mi
4:40 PM100 °FScattered clouds.16 mph45%29.65 "Hg4 mi
4:10 PM99 °FScattered clouds.6 mph42%29.65 "Hg4 mi
3:40 PM97 °FScattered clouds.7 mph44%29.65 "Hg4 mi
3:10 PM97 °FScattered clouds.9 mph47%29.68 "Hg4 mi
2:10 PM95 °FScattered clouds.12 mph50%29.71 "Hg4 mi
1:40 PM95 °FScattered clouds.14 mph50%29.71 "Hg4 mi
1:10 PM95 °FScattered clouds.14 mph47%29.74 "Hg4 mi
12:10 PM90 °FScattered clouds.12 mph59%29.74 "Hg4 mi
11:40 AM90 °FScattered clouds.12 mph59%29.77 "Hg4 mi
10:10 AM86 °FScattered clouds.12 mph66%29.77 "Hg2 mi
9:40 AM84 °FBroken clouds.14 mph70%29.77 "Hg2 mi
9:10 AM84 °FScattered clouds.9 mph74%29.77 "Hg2 mi
8:40 AM84 °FPartly sunny.9 mph74%29.77 "Hg2 mi
8:10 AM84 °FPartly sunny.9 mph74%29.77 "Hg2 mi
7:40 AM82 °FScattered clouds.12 mph74%29.74 "Hg2 mi
7:10 AM82 °FPartly sunny.9 mph79%29.74 "Hg2 mi
6:40 AM82 °FPartly sunny.10 mph74%29.74 "Hg2 mi
6:10 AM82 °FPassing clouds.10 mph74%29.71 "Hg2 mi
5:40 AM82 °FPassing clouds.10 mph74%29.71 "Hg2 mi
5:10 AM82 °FHaze.9 mph74%29.71 "Hg2 mi
4:40 AM82 °FHaze.9 mph79%29.71 "Hg2 mi
4:10 AM84 °FHaze.9 mph74%29.71 "Hg2 mi
3:40 AM84 °FHaze.12 mph70%29.71 "Hg2 mi
3:10 AM84 °FPassing clouds.12 mph70%29.71 "Hg2 mi
2:10 AM86 °FPassing clouds.13 mph66%29.71 "Hg2 mi
1:10 AM86 °FHaze.9 mph70%29.68 "Hg2 mi
Weather by CustomWeather, © 2015

See weather overviewHow to use our weather pages